This is the latest recevied weather packets stored in our database for station/object KD7AWQ. If no packets are shown the sender has not sent any weather packets the latest 10 day(s).
| Time | Temp. | Humidity | Pressure | Rain* | Wind** | Luminosity | Snow |
|---|---|---|---|---|---|---|---|
| 1778075327 | 13.89° C | 40% | 1185.3 hPa | 0 mm | - | 138 W/m² | - |
| 1778075023 | 13.33° C | 41% | 1184.9 hPa | 0 mm | - | 48 W/m² | - |
| 1778074720 | 13.33° C | 43% | 1185.2 hPa | 0 mm | - | 105 W/m² | - |
| 1778074417 | 12.78° C | 43% | 1184.8 hPa | 0 mm | - | 90 W/m² | - |
| 1778074114 | 12.78° C | 45% | 1185.2 hPa | 0 mm | - | 78 W/m² | - |
| 1778073811 | 12.22° C | 45% | 1185.2 hPa | 0 mm | - | 67 W/m² | - |
| 1778073509 | 11.67° C | 45% | 1185.2 hPa | 0 mm | - | 58 W/m² | - |
| 1778073205 | 11.67° C | 46% | 1185 hPa | 0 mm | - | 49 W/m² | - |
| 1778072902 | 11.67° C | 47% | 1185 hPa | 0 mm | - | 41 W/m² | - |
| 1778072599 | 11.67° C | 46% | 1184.9 hPa | 0 mm | - | 35 W/m² | - |
| 1778072297 | 11.11° C | 46% | 1184.6 hPa | 0 mm | - | 30 W/m² | - |
| 1778071995 | 10.56° C | 47% | 1184.7 hPa | 0 mm | - | 25 W/m² | - |
| 1778071693 | 10.56° C | 48% | 1184.4 hPa | 0 mm | - | 20 W/m² | - |
| 1778071389 | 10.56° C | 48% | 1184.9 hPa | 0 mm | - | 16 W/m² | - |
| 1778071087 | 10.56° C | 48% | 1184.6 hPa | 0 mm | - | 11 W/m² | - |
| 1778070786 | 10.56° C | 48% | 1184.4 hPa | 0 mm | - | 7 W/m² | - |
| 1778070482 | 10.56° C | 47% | 1184.5 hPa | 0 mm | - | 4 W/m² | - |
| 1778070179 | 10.56° C | 48% | 1184.4 hPa | 0 mm | - | 2 W/m² | - |
| 1778069877 | 10.56° C | 47% | 1184.6 hPa | 0 mm | - | 1 W/m² | - |
| 1778069574 | 10.56° C | 47% | 1184.1 hPa | 0 mm | - | 0 W/m² | - |
| 1778069271 | 10.56° C | 47% | 1184.1 hPa | 0 mm | - | 0 W/m² | - |
| 1778068969 | 10.56° C | 47% | 1183.9 hPa | 0 mm | - | 0 W/m² | - |
| 1778068666 | 10.56° C | 46% | 1184.3 hPa | 0 mm | - | 0 W/m² | - |
| 1778068364 | 10.56° C | 46% | 1184.4 hPa | 0 mm | - | 0 W/m² | - |
| 1778068062 | 10.56° C | 45% | 1184.1 hPa | 0 mm | - | 0 W/m² | - |
* Rain latest hour (hover to see other rain measurements)
** Current wind speed in m/s (hover to see current wind gust speed)